www.pogodaiklimat.ru

Погода и климат >> Архив погоды >> Иран >> Омидийе


ПОГОДА в Омидийе

  • Прогноз погоды в Омидийе
  • Монитор погоды в Омидийе

АРХИВ ПОГОДЫ в Омидийе

Время (UTC), дата Ветер
(напр.,м/с)
 
Видим.   Явления Облачность Т
(С)
Тd
(С)
f
(%)
Тe
(С)
Тes
(С)
Комфортность P
(гПа)
Po
(гПа)
Тmin
(С)
Tmax
(С)
R
(мм)
R24
(мм)
S
(см)
12 16.07 С 10 10 км 4/0
[Ac trans]
+47.9 +5.6 8 +45 +45 опасность
перегрева
993.8 990.9
15 16.07 СЗ 17 1300 м пыльный позёмок 5/0
[Ac und]
+44.1 +5.3 10 +41 +41 опасность
перегрева
993.5 990.5 +48.1
18 16.07 С 7 7000 м пыльный позёмок ясно +38.3 +6.7 15 +36 +36 очень
жарко
995.0 992.1
21 16.07 СЗ 6 10 км 6/0
[Ac und]
+34.7 +8.3 20 +33 +33 жарко 996.0 993.1
00 17.07 СЗ 8 10 км 6/3 1200 м
[Cu hum Ac und]
+32.5 +9.0 23 +31 +31 жарко 996.5 993.5
03 17.07 С 5 10 км 6/3 1200 м
[Cu hum Ac und]
+30.7 +10.1 28 +30 +31 жарко 996.9 993.9 +30.6
06 17.07 СЗ 6 10 км ясно +36.9 +9.8 19 +35 +41 очень
жарко
998.0 995.0
09 17.07 СЗ 8 10 км 4/4 1200 м
[Sc diur, vesp]
+42.1 +9.6 14 +40 +43 очень
жарко
997.4 994.5
12 17.07 СЗ 11 10 км 3/3 1200 м
[Sc diur, vesp]
+43.7 +10.0 14 +42 +42 опасность
перегрева
995.8 992.8
15 17.07 СЗ 10 10 км 3/0
[Ac trans]
+41.7 +7.2 13 +39 +39 очень
жарко
996.0 993.0 +43.7 666
18 17.07 С 3 10 км 3/0
[Ac trans]
+34.9 +7.3 18 +33 +33 жарко 997.5 994.5
21 17.07 С 5 10 км 3/0
[Ac trans]
+31.3 +9.6 26 +31 +31 жарко 997.6 994.6
00 18.07 С 2 10 км 3/0
[Ac trans]
+28.3 +11.3 35 +29 +29 жарко 997.3 994.3
03 18.07 Ю 1 8000 м мгла 3/3 1200 м
[Sc diur, vesp]
+28.2 +12.5 38 +30 +31 жарко 997.6 994.6 +25.1 666
06 18.07 ЮВ 2 8000 м мгла 1/1 1200 м
[Sc diur, vesp]
+36.0 +14.0 27 +37 +49 душно 997.7 994.8
09 18.07 Ю 6 10 км ясно +41.8 +12.2 17 +41 +49 опасность
перегрева
997.5 994.6 666
12 18.07 Ю 3 10 км ясно +45.2 +9.6 12 +43 +53 опасность
перегрева
996.3 993.4
15 18.07 ЮЗ 3 10 км ясно +44.2 +10.5 14 +43 +43 опасность
перегрева
995.6 992.7 +46.1
18 18.07 Ю 5 7000 м мгла 4/0
[Ac und]
+34.2 +18.7 40 +39 +39 очень
душно
996.2 993.3
21 18.07 ЮВ 4 6000 м мгла ясно +30.6 +21.6 59 +39 +39 очень
душно
996.5 993.5
00 19.07 ЮВ 5 7000 м мгла ясно +31.2 +15.3 38 +34 +34 душно 996.6 993.7
03 19.07 В 1 7000 м мгла 1/1 1200 м
[Cu hum]
+28.9 +16.3 46 +32 +34 душно 997.1 994.2 +27.9
06 19.07 Ю 6 8000 м мгла ясно +39.4 +13.3 21 +39 +45 очень
жарко
997.2 994.2
09 19.07 Ю 7 8000 м мгла ясно +43.6 +14.7 19 +44 +50 опасность
перегрева
996.9 994.0
12 19.07 Ю 2 6000 м мгла ясно +47.3 +13.5 14 +47 +58 опасность
перегрева
995.6 992.7
15 19.07 СЗ 11 8000 м мгла ясно +45.4 +6.7 10 +43 +43 опасность
перегрева
995.0 992.1 +47.6
18 19.07 С 5 7000 м мгла ясно +37.6 +7.6 16 +35 +35 очень
жарко
997.0 994.1
21 19.07 штиль 0 8000 м мгла 9/9 1200 м
[Sc diur, vesp]
+34.9 +10.4 23 +34 +34 очень
жарко
997.5 994.6
00 20.07 ЮВ 3 7000 м мгла 3/3 1200 м
[Sc diur, vesp]
+31.0 +12.8 33 +32 +32 жарко 997.5 994.6
03 20.07 ЮВ 4 7000 м мгла ясно +29.6 +18.6 52 +35 +36 очень
душно
998.7 995.8 +29.0
06 20.07 ЮЗ 2 8000 м мгла ясно +36.7 +17.2 32 +40 +54 опасность
солнечного
удара
999.5 996.6
09 20.07 ЮЗ 5 10 км ясно +43.8 +10.5 14 +42 +54 опасность
перегрева
999.1 996.2 666
12 20.07 ЮЗ 5 10 км ясно +46.5 +9.8 12 +45 +51 опасность
перегрева
997.9 995.0
15 20.07 ЮЗ 4 10 км ясно +44.9 +11.8 14 +44 +44 опасность
перегрева
997.3 994.4 +46.8 666
18 20.07 ЮВ 3 10 км ясно +35.1 +12.1 25 +35 +35 очень
жарко
999.1 996.1
21 20.07 ЮВ 4 10 км ясно +32.7 +16.1 37 +35 +35 душно 999.6 996.6
00 21.07 Ю 3 10 км 4/4 1200 м
[Sc diur, vesp]
+29.8 +17.1 46 +33 +33 душно 999.1 996.1
03 21.07 Ю 1 8000 м мгла 3/3 1200 м
[Sc diur, vesp]
+30.7 +17.7 46 +35 +36 очень
душно
999.8 996.9 +28.8 666
06 21.07 Ю 2 8000 м мгла ясно +38.1 +18.8 33 +43 +56 опасность
перегрева
999.5 996.6
09 21.07 З 3 10 км ясно +45.9 +15.6 18 +47 +65 опасность
перегрева
998.8 995.9
12 21.07 СЗ 9 10 км ясно +48.0 +10.9 12 +47 +48 опасность
перегрева
996.8 993.9
15 21.07 З 7 10 км ясно +46.5 +10.9 13 +46 +46 опасность
перегрева
996.2 993.3 +48.6
18 21.07 С 1 10 км ясно +38.7 +15.3 25 +40 +40 очень
душно
996.7 993.8
21 21.07 Ю 4 8000 м мгла ясно +32.6 +20.5 49 +39 +39 очень
душно
997.4 994.5
00 22.07 ЮВ 3 7000 м мгла ясно +30.4 +19.2 51 +36 +36 очень
душно
997.2 994.3
03 22.07 В 1 7000 м мгла 6/6 1200 м
[Sc]
+30.5 +18.8 50 +36 +36 очень
душно
997.9 994.9 +29.5 666
06 22.07 ЮВ 2 5000 м мгла ясно +38.8 +19.7 33 +44 +58 опасность
перегрева
998.0 995.1
09 22.07 ЮЗ 3 5000 м мгла ясно +46.0 +18.4 21 +49 +67 опасность
перегрева
996.6 993.7
12 22.07 СЗ 7 7000 м мгла 3/3 1200 м
[Sc diur, vesp]
+49.6 +9.8 10 +48 +50 опасность
перегрева
994.8 991.9
15 22.07 СЗ 8 8000 м мгла ясно +47.2 +7.4 10 +45 +45 опасность
перегрева
994.1 991.2 +49.6 666
18 22.07 С 7 8000 м мгла ясно +40.8 +11.1 17 +40 +40 очень
жарко
995.1 992.2
21 22.07 Ю 5 7000 м мгла 4/4 1200 м
[Sc diur, vesp]
+33.6 +20.4 46 +40 +40 очень
душно
995.1 992.2
00 23.07 ЮВ 5 5000 м мгла 6/0
[Ac trans]
+31.6 +24.7 67 +45 +45 опасность
перегрева
995.4 992.5
03 23.07 Ю 3 5000 м мгла 6/6 1200 м
[Sc diur, vesp]
+31.4 +22.3 59 +41 +41 опасность
перегрева
996.0 993.1 +30.8 666
06 23.07 ЮВ 2 8000 м мгла 3/3 1200 м
[Sc diur, vesp]
+40.6 +16.5 25 +43 +52 опасность
перегрева
996.3 993.4
09 23.07 ЮЗ 4 8000 м мгла 1/1 1200 м
[Sc diur, vesp]
+45.6 +18.2 21 +49 +62 опасность
перегрева
995.5 992.6

 

Местоположение метеостанции Омидийе (Иран): широта 30.77 долгота 49.67 высота над уровнем моря 27 м.

В архиве по умолчанию представлена погода в Омидийе за последнюю неделю. Архивные данные за месяц целиком и за предыдущие месяцы, начиная с января 2011 года, Вы можете получить, выбрав интересующий диапазон дат из раскрывающегося списка и нажав кнопку "Ввод!".


*Определитесь, кто Вы:
робот инопланетянин человек

Внимание! Время в таблицах - всемирное. Для получения местного времени необходимо прибавить поправку, которая равна 3.5 ч.

Смотрите также архив погоды в соседних городах и на ближайших метеорологических станциях:

Погода в Гечсаране (Иран) (112 км)
Погода в Ахвазе (Иран) (114 км)
Погода в Месджеде-Солеймане (Иран) (140 км)
Погода в Эль-Фао (Ирак) (143 км)
Погода в Абадане (Иран) (143 км)
Погода на Бубияне (Кувейт) (167 км)
Погода на Харке (Иран) (179 км)
Погода в Басре (Ирак) (182 км)
Погода в Ясудже (Иран) (183 км)
Погода в Басре аэропорт (Ирак) (183 км)

Пояснения к столбцам:

Ветер - указаны скорость ветра в м/с - средняя за 10 мин, порывы в срок и между сроками (в фигурных скобках) и направление, откуда дует ветер: С - северный, СВ - северо-восточный, В - восточный, ЮВ - юго-восточный, Ю - южный, ЮЗ - юго-западный, З - западный, СЗ - северо-западный.
Видимость - горизонтальная дальность видимости в метрах или километрах. При видимости от 1 до 10 км при отсутствии осадков обычно наблюдается дымка, при ухудшении видимости до 1 км и менее - туман. В сухую погоду видимость может ухудшаться дымом, пылью или мглою.
Явления - указаны атмосферные явления, наблюдавшиеся в срок или в последний час перед сроком; фигурными скобками обозначены явления, наблюдавшиеся между сроками (за 1-3 часа до срока); квадратными скобками обозначены град или гололедные отложения с указанием их диаметра в мм.
Облачность - указаны через наклонную черту общая и нижняя облачность в баллах и высота нижней границы облаков в метрах; квадратными скобками обозначены формы облаков: Ci - перистые, Cs - перисто-слоистые, Cc - перисто-кучевые, Ac - высококучевые, As - высокослоистые, Sc - слоисто-кучевые, Ns - слоисто-дождевые, Cu - кучевые, Cb - кучево-дождевые. Подробнее классификацию облаков см. в Атласе облаков (PDF).
T - Температура воздуха - температура, измеренная на высоте 2 м над землей.
Td - Температура точки росы - температура, при понижении до которой содержащийся в воздухе водяной пар достигнет насыщения.
f - Относительная влажность воздуха - влажноcть воздуха, измеренная на высоте 2 м над землей.
Te - Эффективная температура - температура, которую ощущает одетый по сезону человек в тени. Характеристика душности погоды. При расчете учитывается влияние влажности воздуха и скорости ветра на теплоощущения человека.
Tes - Эффективная температура на солнце - температура, которую ощущает человек, с поправкой на солнечный нагрев. Характеристика знойности погоды. Зависит от высоты солнца над горизонтом, облачности и скорости ветра. Ночью, в пасмурную погоду, а также при ветре 12 м/с и более поправка равна нулю.
P - Атмосферное давление - приведенное к уровню моря атмосферное давление.
Po - Атмосферное давление - измеренное на уровне метеостанции атмосферное давление.
Tmin - Минимальная температура - минимум температуры воздуха на высоте 2 м над землей.
Tmax - Максимальная температура - максимум температуры воздуха на высоте 2 м над землей.
R - Количество осадков - Количество выпавших осадков за период времени, мм. При наведении курсора мыши на число - период времени, за который выпало указанное количество осадков.
R24 - Количество осадков - Количество выпавших осадков за 24 часа, мм.
S - Снежный покров - Высота снежного покрова, см. При наведении курсора мыши на число - состояние снежного покрова и степень покрытия местности в баллах.